FW0177 Weather Reports


Display with metric or nautical units.
time (UTC)temp
F
wind
direction
speed
MPH
gust
MPH
rain 1hr
in
rain 24hr
in
rain mn
in
humidity
%
barometer
mb
20181121113223 35 9 0.0 0.0 0.00 0.01 0.00 95 1025.2
20181121112716 35 11 0.0 0.0 0.00 0.01 0.00 95 1025.2
20181121112229 35 5 0.0 0.0 0.00 0.01 0.00 95 1025.2
20181121111721 35 5 0.0 0.0 0.00 0.01 0.00 95 1025.2
20181121111215 35 5 0.0 0.0 0.00 0.01 0.00 95 1025.1
20181121110726 35 5 0.0 0.0 0.00 0.01 0.00 95 1025.2
20181121110221 35 5 0.0 0.0 0.00 0.01 0.00 95 1025.1
20181121105715 35 5 0.0 0.0 0.00 0.01 0.00 95 1025.1
20181121105227 36 5 0.0 0.0 0.00 0.01 0.00 95 1025.1
20181121025732 43 284 0.0 0.0 0.00 0.01 0.01 92 1024.4
20181121025224 43 284 0.0 0.0 0.00 0.01 0.01 92 1024.4
20181121024715 43 284 0.0 0.0 0.00 0.01 0.01 91 1024.4
20181121024227 43 284 0.0 0.0 0.00 0.01 0.01 91 1024.4
20181121023719 43 284 0.0 0.0 0.00 0.01 0.01 91 1024.3
20181121023230 43 284 0.0 0.0 0.00 0.01 0.01 91 1024.3
20181121022722 44 284 0.0 0.0 0.00 0.01 0.01 90 1024.1
20181121022233 44 284 0.0 0.0 0.00 0.01 0.01 90 1024.1
20181121021728 44 284 0.0 0.0 0.00 0.01 0.01 90 1024.0
20181121021220 44 284 0.0 0.0 0.00 0.01 0.01 90 1023.9
20181121020731 44 284 0.0 0.0 0.00 0.01 0.01 89 1024.0
20181121020221 44 284 0.0 0.0 0.00 0.01 0.01 89 1023.9
20181121015732 44 284 0.0 0.0 0.00 0.01 0.01 89 1024.0
20181121015223 45 284 0.0 0.0 0.00 0.02 0.01 89 1023.9
20181121014715 45 284 0.0 0.0 0.00 0.02 0.01 88 1023.9
20181121014226 45 284 0.0 0.0 0.00 0.02 0.01 88 1024.0
20181121013722 45 284 0.0 0.0 0.00 0.02 0.01 88 1023.8
20181121013233 45 284 0.0 0.0 0.00 0.02 0.01 88 1023.8
20181121012724 45 284 0.0 0.0 0.01 0.02 0.01 89 1023.8
20181121012216 45 284 0.0 0.0 0.01 0.02 0.01 89 1023.6
20181121011727 45 284 0.0 0.0 0.01 0.02 0.01 89 1023.6
20181121011219 45 284 0.0 0.0 0.01 0.02 0.01 89 1023.6
20181121010730 45 284 0.0 0.0 0.01 0.02 0.01 89 1023.7
20181121010221 45 284 0.0 0.0 0.01 0.02 0.01 88 1023.7
20181121005716 45 284 0.0 2.0 0.01 0.02 0.01 88 1023.7
20181121005228 45 284 0.0 2.0 0.01 0.02 0.01 88 1023.7
20181121004721 46 284 0.0 0.0 0.01 0.02 0.01 87 1023.5
20181121004232 46 284 0.0 0.0 0.01 0.02 0.01 87 1023.5
20181121003724 46 284 0.0 0.0 0.01 0.02 0.01 86 1023.5
20181121003216 46 284 0.0 2.0 0.01 0.02 0.01 86 1023.4
20181121002727 47 284 0.0 3.0 0.00 0.01 0.00 86 1023.3
20181121002218 47 284 1.0 4.0 0.00 0.01 0.00 85 1023.3
20181121001714 47 284 2.0 4.0 0.00 0.01 0.00 85 1023.3
20181121001226 47 296 2.0 3.0 0.00 0.01 0.00 85 1023.2
20181121000717 47 304 0.0 1.0 0.00 0.01 0.00 85 1023.0
20181121000228 47 294 0.0 1.0 0.00 0.01 0.00 84 1022.9
20181120235719 47 294 0.0 1.0 0.00 0.01 0.00 83 1022.9
20181120235230 47 294 0.0 3.0 0.00 0.01 0.00 83 1022.9
20181120234721 48 298 0.0 1.0 0.00 0.01 0.00 82 1022.8
20181120234233 48 298 0.0 1.0 0.00 0.01 0.00 82 1022.8
20181120233724 48 298 0.0 3.0 0.00 0.01 0.00 81 1022.7
20181120233219 48 298 1.0 3.0 0.00 0.01 0.00 80 1022.6
20181120232731 49 321 0.0 1.0 0.00 0.01 0.00 80 1022.5
20181120232222 49 321 0.0 1.0 0.00 0.01 0.00 79 1022.5
20181120231714 49 321 0.0 1.0 0.00 0.01 0.00 77 1022.5
20181120231225 50 321 0.0 2.0 0.00 0.01 0.00 77 1022.4
20181120230716 50 63 0.0 1.0 0.00 0.01 0.00 76 1022.3
20181120230228 50 63 0.0 2.0 0.00 0.01 0.00 75 1022.3
20181120225721 51 63 0.0 2.0 0.00 0.01 0.00 75 1022.3
20181120225216 51 63 1.0 3.0 0.00 0.01 0.00 73 1022.1
20181120224727 51 5 1.0 3.0 0.00 0.01 0.00 73 1022.0
20181120224218 52 12 1.0 3.0 0.00 0.01 0.00 71 1021.9
20181120223730 52 81 1.0 4.0 0.00 0.01 0.00 70 1021.9
20181120223221 53 22 1.0 4.0 0.00 0.01 0.00 70 1021.9
20181120222732 53 296 0.0 4.0 0.00 0.01 0.00 69 1021.9
20181120222224 54 286 2.0 4.0 0.00 0.01 0.00 66 1021.8
20181120221715 54 72 1.0 4.0 0.00 0.01 0.00 67 1021.8
20181120221231 55 313 1.0 3.0 0.00 0.01 0.00 66 1021.8
20181120220724 55 70 1.0 5.0 0.00 0.01 0.00 64 1021.7
20181120220214 56 36 2.0 9.0 0.00 0.01 0.00 64 1021.6
20181120215726 56 316 1.0 9.0 0.00 0.01 0.00 63 1021.6
20181120215217 56 335 2.0 8.0 0.00 0.02 0.00 63 1021.5
20181120214729 57 312 1.0 11.0 0.00 0.02 0.00 63 1021.5
20181120214220 57 299 3.0 11.0 0.00 0.02 0.00 62 1021.4
20181120213730 57 320 2.0 8.0 0.00 0.02 0.00 62 1021.4
20181120213225 57 23 2.0 11.0 0.00 0.02 0.00 61 1021.4
20181120212716 57 329 2.0 13.0 0.00 0.02 0.00 62 1021.3
20181120212228 57 338 5.0 13.0 0.00 0.02 0.00 60 1021.3
20181120211720 58 308 6.0 11.0 0.00 0.02 0.00 59 1021.2
20181120211231 58 295 3.0 11.0 0.00 0.02 0.00 60 1021.2
20181120210722 58 302 5.0 11.0 0.00 0.02 0.00 59 1021.1
20181120210234 59 241 4.0 11.0 0.00 0.02 0.00 59 1021.1
20181120205726 59 296 2.0 9.0 0.00 0.02 0.00 58 1021.1
20181120205221 59 22 3.0 10.0 0.00 0.02 0.00 59 1021.1
20181120204732 58 58 2.0 10.0 0.00 0.02 0.00 58 1021.0
20181120204224 59 304 4.0 11.0 0.00 0.02 0.00 60 1021.0
20181120203716 58 355 3.0 9.0 0.00 0.02 0.00 61 1021.0
20181120203227 58 288 2.0 10.0 0.00 0.02 0.00 61 1021.0
20181120202719 58 330 3.0 14.0 0.00 0.02 0.00 62 1021.0
20181120202231 58 327 5.0 14.0 0.00 0.02 0.00 61 1020.9
20181120201722 58 286 5.0 11.0 0.00 0.02 0.00 61 1020.9
20181120201217 58 296 7.0 11.0 0.00 0.02 0.00 61 1020.9
20181120200728 59 338 6.0 11.0 0.00 0.02 0.00 59 1021.0
20181120200220 59 323 3.0 10.0 0.00 0.02 0.00 61 1020.9
20181120195732 59 292 4.0 10.0 0.00 0.02 0.00 60 1020.9
20181120195224 59 22 3.0 11.0 0.00 0.02 0.00 62 1020.8
20181120194715 58 277 2.0 11.0 0.00 0.02 0.00 62 1020.9
20181120194226 58 321 4.0 12.0 0.00 0.02 0.00 63 1020.9
20181120193718 58 313 4.0 12.0 0.00 0.02 0.00 63 1021.1
20181120193229 58 272 5.0 12.0 0.00 0.02 0.00 62 1021.1
20181120192725 57 313 7.0 10.0 0.00 0.02 0.00 62 1021.1
20181120192216 57 15 2.0 9.0 0.00 0.02 0.00 66 1021.0
20181120191728 57 304 3.0 9.0 0.00 0.02 0.00 66 1021.0
20181120191219 57 294 4.0 9.0 0.00 0.02 0.00 67 1021.1
20181120190730 57 355 2.0 8.0 0.00 0.02 0.00 68 1021.1
20181120190221 57 317 2.0 9.0 0.00 0.02 0.00 70 1021.2
20181120185732 56 5 6.0 9.0 0.00 0.02 0.00 69 1021.3
20181120185223 56 302 2.0 9.0 0.00 0.02 0.00 70 1021.4
20181120184718 56 295 4.0 11.0 0.00 0.02 0.00 72 1021.5
20181120184229 55 260 4.0 11.0 0.00 0.02 0.00 71 1021.5
20181120183721 55 38 2.0 11.0 0.00 0.02 0.00 73 1021.6
20181120183232 55 338 6.0 13.0 0.00 0.02 0.00 73 1021.7
20181120182724 54 309 8.0 13.0 0.00 0.02 0.00 74 1021.6
20181120182215 54 300 1.0 9.0 0.00 0.02 0.00 76 1021.7
20181120181727 54 304 4.0 11.0 0.00 0.02 0.00 75 1021.8
20181120181218 53 36 3.0 13.0 0.00 0.02 0.00 79 1021.9
20181120180733 53 281 6.0 14.0 0.00 0.02 0.00 77 1022.0
20181120180225 52 355 6.0 14.0 0.00 0.02 0.00 79 1022.2
20181120175716 52 283 7.0 13.0 0.00 0.02 0.00 79 1022.3
20181120175227 52 5 6.0 13.0 0.00 0.02 0.00 80 1022.4
20181120174720 52 302 3.0 9.0 0.00 0.02 0.00 84 1022.5
20181120174231 51 317 3.0 6.0 0.00 0.02 0.00 85 1022.6
20181120173724 51 343 3.0 10.0 0.00 0.02 0.00 86 1022.6
20181120173233 50 321 4.0 10.0 0.00 0.02 0.00 85 1022.6
20181120172729 50 315 3.0 9.0 0.00 0.02 0.00 86 1022.8
20181120172220 50 15 4.0 9.0 0.00 0.02 0.00 87 1023.0
20181120171732 50 346 3.0 9.0 0.00 0.02 0.00 87 1023.0
20181120171224 50 59 2.0 10.0 0.00 0.02 0.00 88 1023.0
20181120170716 50 355 4.0 10.0 0.00 0.02 0.00 88 1023.3
20181120170226 50 306 3.0 9.0 0.00 0.02 0.00 90 1023.3
20181120165732 50 319 4.0 12.0 0.00 0.02 0.00 90 1023.3
20181120165223 50 302 4.0 12.0 0.00 0.02 0.00 91 1023.3
20181120164718 49 5 2.0 5.0 0.00 0.02 0.00 92 1023.4
20181120164229 49 65 1.0 9.0 0.00 0.02 0.00 93 1023.4
20181120163722 49 323 3.0 8.0 0.00 0.02 0.00 93 1023.4
20181120163233 49 355 2.0 4.0 0.00 0.02 0.00 93 1023.4
20181120162724 49 315 2.0 10.0 0.00 0.02 0.00 94 1023.4
20181120162215 49 302 1.0 10.0 0.00 0.02 0.00 94 1023.5
20181120161726 49 331 2.0 9.0 0.00 0.02 0.00 95 1023.5
20181120161219 49 298 3.0 9.0 0.00 0.02 0.00 95 1023.6
20181120160714 48 337 2.0 9.0 0.00 0.02 0.00 95 1023.6
20181120160226 48 313 1.0 10.0 0.00 0.02 0.00 96 1023.5
20181120155717 48 321 2.0 10.0 0.00 0.02 0.00 96 1023.4
20181120155228 48 14 1.0 8.0 0.00 0.02 0.00 96 1023.5
20181120154720 49 42 2.0 8.0 0.00 0.02 0.00 96 1023.3
20181120154232 49 30 2.0 5.0 0.00 0.02 0.00 96 1023.3
20181120153724 49 314 2.0 5.0 0.00 0.02 0.00 96 1023.3
20181120153215 49 355 0.0 8.0 0.00 0.02 0.00 96 1023.1
20181120152726 49 18 2.0 8.0 0.00 0.02 0.00 96 1023.1
20181120152222 49 333 2.0 6.0 0.00 0.02 0.00 96 1023.1
20181120151733 49 339 1.0 4.0 0.00 0.02 0.00 96 1022.9
20181120151226 49 46 1.0 5.0 0.00 0.02 0.00 96 1022.9
20181120150717 49 360 1.0 7.0 0.00 0.02 0.00 96 1022.9
20181120150229 49 300 2.0 7.0 0.00 0.02 0.00 96 1022.8
20181120145720 49 298 1.0 9.0 0.00 0.02 0.00 96 1022.8
20181120145231 49 344 3.0 9.0 0.00 0.02 0.00 96 1022.8
20181120144722 49 309 0.0 8.0 0.00 0.02 0.00 96 1022.7
20181120144217 49 306 3.0 12.0 0.00 0.02 0.00 96 1022.7
20181120143725 49 269 5.0 12.0 0.00 0.02 0.00 96 1022.7
20181120143215 49 285 3.0 7.0 0.00 0.02 0.00 96 1022.6
20181120142727 49 300 3.0 7.0 0.00 0.02 0.00 96 1022.5
20181120142218 50 292 2.0 8.0 0.00 0.02 0.00 96 1022.5
20181120141728 50 301 0.0 8.0 0.00 0.02 0.00 96 1022.5
20181120141220 50 311 2.0 8.0 0.00 0.02 0.00 96 1022.4
20181120140731 50 294 1.0 7.0 0.00 0.02 0.00 96 1022.4
20181120140227 50 296 2.0 7.0 0.00 0.02 0.00 96 1022.3
20181120135718 50 349 1.0 6.0 0.00 0.02 0.00 97 1022.3
20181120135230 50 305 1.0 6.0 0.00 0.02 0.00 96 1022.2
20181120134717 50 299 2.0 10.0 0.00 0.02 0.00 96 1022.2
20181120134229 50 324 4.0 9.0 0.00 0.02 0.00 96 1022.2
20181120133720 50 311 3.0 8.0 0.00 0.02 0.00 96 1022.0
20181120133231 50 313 2.0 6.0 0.00 0.02 0.00 97 1021.9
20181120132722 50 306 2.0 8.0 0.00 0.02 0.00 97 1021.7
20181120132218 50 282 1.0 7.0 0.00 0.02 0.00 97 1021.7
20181120131730 50 360 1.0 5.0 0.00 0.02 0.00 97 1021.6
20181120131223 50 290 1.0 4.0 0.00 0.02 0.00 97 1021.6
20181120130734 50 295 0.0 8.0 0.00 0.02 0.00 97 1021.5
20181120130225 50 319 1.0 8.0 0.00 0.02 0.00 97 1021.5
20181120125717 50 309 1.0 5.0 0.00 0.02 0.00 97 1021.4
20181120125228 50 313 1.0 5.0 0.00 0.02 0.00 96 1021.4
20181120124720 50 309 0.0 6.0 0.00 0.02 0.00 96 1021.4
20181120124215 50 308 0.0 8.0 0.00 0.02 0.00 96 1021.4
20181120123727 50 317 2.0 7.0 0.00 0.02 0.00 96 1021.3
20181120123218 51 292 3.0 7.0 0.00 0.02 0.00 96 1021.2
20181120122730 51 321 2.0 5.0 0.00 0.02 0.00 96 1021.3
20181120122222 51 308 1.0 5.0 0.00 0.02 0.00 96 1021.2
20181120121734 51 329 2.0 5.0 0.00 0.02 0.00 96 1021.2
20181120121225 51 302 2.0 8.0 0.00 0.02 0.00 96 1021.0
20181120120716 51 314 2.0 8.0 0.00 0.02 0.00 96 1021.0
20181120120228 51 322 1.0 8.0 0.00 0.02 0.00 96 1020.9
20181120115723 51 304 4.0 8.0 0.00 0.02 0.00 96 1020.8
20181120115215 51 309 1.0 4.0 0.00 0.02 0.00 96 1020.7
20181120114726 51 342 2.0 9.0 0.00 0.02 0.00 96 1020.7
20181120114218 52 355 3.0 6.0 0.00 0.02 0.00 96 1020.7
20181120113730 52 304 1.0 10.0 0.00 0.02 0.00 96 1020.7